Location: Beadle
(51.4667°N, 109.0000°W)
Time: 05:37:13
(UTC+00:00)

Altair - Pass Details

Date: 01 June 2022
Orbit: 1501 x 1682 km, 47.2° (Epoch: 30 June)

Event Time Altitude Azimuth Distance (km) Brightness Sun altitude
Rises 04:49:07 0° 288° (WNW) 4,927 11.1 -9.9°
Reaches altitude 10° 04:52:49 10° 278° (W) 3,945 10.3 -10.2°
Maximum altitude 05:00:55 28° 224° (SW) 2,751 8.7 -10.9°
Enters shadow 05:08:43 11° 171° (S) 3,848 9.0 -11.5°
Drops below altitude 10° 05:08:59 10° 170° (S) 3,911 - -11.5°
Sets 05:12:40 0° 160° (SSE) 4,877 - -11.8°
